Regional Weather Roundup
Issued by NWS

Home | Current Version | Previous Version | Graphics & Text | Print | Product List | Glossary On
Versions: 1 2 3 4 5 6 7 8 9 10 11 12 13 14 15 16 17 18 19 20 21 22 23 24 25 26 27 28 29 30 31 32 33 34 35 36 37 38 39 40 41 42 43 44 45 46 47 48 49 50
000
ASUS43 KFSD 011602
RWRSD

WEATHER ROUNDUP FOR SOUTH DAKOTA
NATIONAL WEATHER SERVICE SIOUX FALLS SD
1000 AM CST SUN FEB 01 2015

NOTE: "FAIR" INDICATES FEW OR NO CLOUDS BELOW 12,000 FEET WITH NO
SIGNIFICANT WEATHER AND/OR OBSTRUCTIONS TO VISIBILITY.


SDZ001>005-009-010-012>017-011700-
NORTHWEST AND NORTH CENTRAL SOUTH DAKOTA

CITY           SKY/WX    TMP DP  RH WIND       PRES   REMARKS
BUFFALO          N/A     -1  -6  79 NW9       30.31R WCI -16
FAITH            N/A     -1  -8  72 N16       30.40R WCI -21
MOBRIDGE       LGT SNOW  -2 -10  69 N15       30.44S VSB 1   WCI -22
$$

SDZ012>016-024>037-041>051-057-063-072>074-011700-
SOUTHWEST AND SOUTH CENTRAL SOUTH DAKOTA

CITY           SKY/WX    TMP DP  RH WIND       PRES   REMARKS
RAPID CTY ARPT SUNNY      2  -2  83 N16       30.35R WCI -18
PIERRE         LGT SNOW  -2  -8  76 NW21      30.44R VSB 1   WCI -25
CUSTER         SUNNY      5  -5  63 N6        30.10R WCI  -6
ELLSWORTH AFB  SUNNY      2  -2  84 N14       30.34S WCI -17
PHILIP         CLOUDY     2  -6  69 N16       30.43S WCI -18
PINE RIDGE     LGT SNOW   5  -3  69 N13G22    30.33R WCI -12
WINNER         LGT SNOW   1  -5  75 NW22G29   30.37R VSB 1   WCI -21
$$

SDZ004>011-016>023-039-040-011700-
NORTHEAST SOUTH DAKOTA

CITY           SKY/WX    TMP DP  RH WIND       PRES   REMARKS
ABERDEEN       CLOUDY     0 -10  63 N22       30.45R WCI -23
WATERTOWN      CLOUDY    -1  -7  75 N20       30.29R WCI -23
SISSETON         N/A     -3 -11  68 N22       30.43R WCI -27
$$

SDZ017-020-022-023-036>040-048>070-011700-
SOUTHEAST SOUTH DAKOTA

CITY           SKY/WX    TMP DP  RH WIND       PRES   REMARKS
SIOUX FALLS    LGT SNOW   6   1  80 N22       30.21R VSB 3/4 WCI -15
HURON          LGT SNOW   0  -6  76 N21G31    30.38R WCI -22
MITCHELL       MIX PCPN   1  -4  79 N26       30.35R WCI -23
YANKTON        CLOUDY   N/A N/A N/A N23       30.25R
$$

ABBREVIATIONS USED IN REMARKS
   TC - TEMPERATURE IN CELSIUS
  WCI - WIND CHILL INDEX
   HX - HEAT INDEX
  VSB - VISIBILITY



USA.gov is the U.S. government's official web portal to all federal, state and local government web resources and services.